Zurück zum Katalog

STARLINK-31844

AktivKommunikationVLEO
NORAD 60583·PAYLOAD·🇺🇸 United States

Gestartet Aug 20, 2024 von Cape Canaveral Space Force Station

Loading…

Nächste Überflüge (nächste 24 Stunden)

TLE

AktuellSource: CelesTrak SupGP

Epoche: Sep 14, 2026, 14:17 UTC

1 60583C 24150A   26257.59562500  .00055672  00000+0  17904-2 0  2572
2 60583  53.1581 147.7472 0001321 101.3906 112.9946 15.31670910    12

Verfolge STARLINK-31844 in Echtzeit mit AllMySat

Download on the App Store